Voltar ao catálogo

STARLINK-34581

AtivoComunicaçõesVLEO
NORAD 64745·PAYLOAD·🇺🇸 United States

Lançado Jul 2, 2025 de Cape Canaveral Space Force Station

Loading…

Próximas Passagens (próximas 24 horas)

TLE

AtualizadoSource: CelesTrak SupGP

Época: Sep 14, 2026, 22:34 UTC

1 64745C 25144X   26257.94076389 -.00001611  00000+0 -47602-4 0  2570
2 64745  53.1602  21.4794 0001102  76.0839 304.9712 15.34393423    13

Acompanhe STARLINK-34581 em tempo real com AllMySat

Download on the App Store